Regional Weather Roundup
Issued by NWS San Angelo, TX

Home | Current Version | Previous Version | Text Only | Print | Product List | Glossary On
Versions: 1 2 3 4 5 6 7 8 9 10 11 12 13 14 15 16 17 18 19 20 21 22 23 24 25 26 27 28 29 30 31 32 33 34 35 36 37 38 39 40 41 42 43 44 45 46 47 48 49 50
000
ASUS44 KSJT 231410
RWRSJT
WEST CENTRAL TEXAS REGIONAL WEATHER ROUNDUP
NATIONAL WEATHER SERVICE SAN ANGELO TX
900 AM CDT WED AUG 23 2017

NOTE: "FAIR" INDICATES FEW OR NO CLOUDS BELOW 12,000 FEET WITH NO
SIGNIFICANT WEATHER AND/OR OBSTRUCTIONS TO VISIBILITY.

TXZ049-054-064>066-071>073-076>078-098-099-113-114-127-128-139-140-
154-155-168>170-231500
...LOCATIONS ACROSS WEST CENTRAL TEXAS...

CITY           SKY/WX    TMP DP  RH WIND       PRES   REMARKS
SAN ANGELO     CLOUDY    74  68  81 NE5       30.10R
ABILENE        CLOUDY    73  70  90 SE3       30.10R
DYESS AFB      CLOUDY    73  69  89 NW3       30.09S
JUNCTION       PTSUNNY   78  67  68 CALM      30.08R
SWEETWATER     PTSUNNY   72  71  96 CALM      30.16S
BROWNWOOD      CLOUDY    75  70  83 NE7       30.08R
COLEMAN        CLOUDY    75  68  79 NE8       30.09R
SONORA         CLOUDY    75  66  73 E5        30.13S
OZONA          FAIR      72  68  88 NE7       30.13R
BRADY          NOT AVBL
$$

TEXAS PANHANDLE/OKLAHOMA PANHANDLE

CITY           SKY/WX    TMP DP  RH WIND       PRES   REMARKS
AMARILLO       CLOUDY    66  66 100 E9        30.22S FOG
BORGER         CLOUDY    69  67  93 E7        30.21R
CANADIAN       CLOUDY    69  67  93 E5        30.19S
DALHART        CLOUDY    65  64  97 SE8       30.26R
DUMAS          CLOUDY    64  63  96 E5        30.24S FOG
GUYMON         NOT AVBL
HEREFORD       FOG       68  68 100 NE6       30.23S VSB 1/4
PAMPA          CLOUDY    68  67  95 SE7       30.22S FOG
PERRYTON       CLOUDY    68  63  84 E8        30.20S
$$

SOUTHERN PANHANDLE/SOUTH PLAINS/ROLLING PLAINS

CITY           SKY/WX    TMP DP  RH WIND       PRES   REMARKS
LUBBOCK        MOSUNNY   69  64  84 E8        30.18S
SNYDER         PTSUNNY   70  67  89 NE5       30.15S
CHILDRESS      PTSUNNY   70  68  93 NE7       30.14S
SEMINOLE       LGT RAIN  69  64  84 E6        30.20S
$$

PERMIAN BASIN

CITY           SKY/WX    TMP DP  RH WIND       PRES   REMARKS
MIDLAND        CLOUDY    70  66  87 NE10      30.15F
ODESSA         LGT RAIN  69  67  93 E10       30.17S
WINK           MOSUNNY   72  65  78 NE13      30.14R
$$

FAR WEST/SOUTHWEST MOUNTAINS/TRANS PECOS

CITY           SKY/WX    TMP DP  RH WIND       PRES   REMARKS
ALPINE         SUNNY     72  60  64 CALM      30.26R
DRYDEN           N/A     77  66  68 N8        30.05R
EL PASO        PTSUNNY   77  64  64 NE6       30.16R
FORT STOCKTON  MOSUNNY   71  67  87 NW12      30.13R
GUADALUPE PASS CLOUDY    64  64 100 NE9       30.30R
MARFA          CLOUDY    71  62  73 N6        30.24R
PECOS          MOSUNNY   73  64  75 N8        30.14R
$$

DALLAS/FORT WORTH METROPLEX

CITY           SKY/WX    TMP DP  RH WIND       PRES   REMARKS
DFW AIRPORT    LGT RAIN  78  73  84 NE3       30.02S
FTW MEACHAM    CLOUDY    76  74  93 E6        30.03R
DAL-EXECUTIVE  CLOUDY    80  69  69 NE7       30.02S
GRAND PRAIRIE  SUNNY     79  66  65 N7        30.05S
ADDISON        PTSUNNY   77  68  73 NE7       30.04R
MESQUITE         N/A     75  70  83 NE6       30.04R
LANCASTER      CLOUDY    78  68  71 NE6       30.04S
$$

NORTH CENTRAL TEXAS

CITY           SKY/WX    TMP DP  RH WIND       PRES   REMARKS
SHRMAN/DENISON CLOUDY    73  71  96 E3        30.06S
GAINESVILLE    CLOUDY    73  71  94 NE3       30.08R
BRIDGEPORT     CLOUDY    73  73 100 NE3       30.08R
DENTON         CLOUDY    75  72  90 NE7       30.04S
WAXAHACHIE     CLOUDY    77  70  78 NE7       30.04F
GRANBURY       TSTM      76  71  83 W7        30.07R
$$

WESTERN NORTH TEXAS

CITY           SKY/WX    TMP DP  RH WIND       PRES   REMARKS
WICHITA FALLS  CLOUDY    73  70  90 NE10      30.07R
VERNON         MOSUNNY   73  68  82 N8        30.10S
BRECKENRIDGE   CLOUDY    76  72  88 CALM      30.07R FOG
COMANCHE       RAIN      73  73 100 CALM      30.09R
$$

CENTRAL AND SOUTH CENTRAL TEXAS

CITY           SKY/WX    TMP DP  RH WIND       PRES   REMARKS
AUSTIN/BERGSTM PTSUNNY   81  73  76 CALM      30.01R
WACO           SUNNY     81  72  74 NE10      30.01S
HILLSBORO      SUNNY     80  70  72 NE12      30.03R
TEMPLE         SUNNY     83  71  67 NW5       30.02S
KILLEEN-GRAY   SUNNY     82  70  66 NW5       30.02R
FORT HOOD      SUNNY     80  69  69 NW5       29.99S
GEORGETOWN     MOSUNNY   81  70  69 CALM      30.04R
LAGO VISTA     FAIR      80  70  73 W3        30.04S
SAN MARCOS     MOSUNNY   80  73  79 CALM      30.03R
NEW BRAUNFELS  SUNNY     79  73  82 SE3       30.00S
RANDOLPH AFB   SUNNY     80  76  86 S5        30.02R
SAN ANTONIO    MOSUNNY   80  71  74 SW6       30.02S
STINSON        SUNNY     81  74  79 CALM      30.00R
PLEASANTON     NOT AVBL
LA GRANGE      CLOUDY    82  76  81 W3        29.98F
GIDDINGS       PTSUNNY   77  73  86 W3        30.02S
$$

EAST TEXAS

CITY           SKY/WX    TMP DP  RH WIND       PRES   REMARKS
PARIS          MOSUNNY   74  71  91 NE7       30.05F
CLARKSVILLE    NOT AVBL
TYLER          PTSUNNY   79  73  82 NE9       30.02S
LONGVIEW       SUNNY     80  76  87 NW5       30.01S
PALESTINE      MOSUNNY   81  73  77 SE3       30.03R
NACOGDOCHES    PTSUNNY   78  75  90 CALM      30.02S
$$

TEXAS HILL COUNTRY AND EDWARDS PLATEAU

CITY           SKY/WX    TMP DP  RH WIND       PRES   REMARKS
LLANO          MOSUNNY   81  70  69 CALM      30.07R
HORSESHOE BAY  FAIR      82  69  65 W3        30.05R
KERRVILLE      SUNNY     75  71  86 CALM      30.07R
FREDERICKSBRG  MOSUNNY   72  67  84 CALM      30.07S
ROCKSPRINGS    NOT AVBL
HONDO          SUNNY     79  72  79 E3        30.03R
UVALDE         SUNNY     78  70  76 CALM      30.04R
DEL RIO        MOSUNNY   81  68  64 E7        30.00R
$$

SOUTHEAST TEXAS

CITY           SKY/WX    TMP DP  RH WIND       PRES   REMARKS
COLLEGE STN    MOSUNNY   80  74  81 SW5       30.00S
CALDWELL       NOT AVBL
CROCKETT       SUNNY     81  73  78 W3        30.04S
BRENHAM        SUNNY     80  76  89 W3        30.01R
HUNTSVILLE     CLOUDY    82  73  74 VRB5      30.01S
CONROE         SUNNY     82  76  81 NW5       30.00S
HOUSTON BUSH   MOSUNNY   83  75  77 N3        29.99S
HOUSTON HOBBY  PTSUNNY   86  75  69 N5        29.98S
PERLAND        MOSUNNY   86  75  69 N5        29.99S
WHARTON        SUNNY     79  75  89 N3        29.99S
$$

THE UPPER TEXAS COAST

CITY           SKY/WX    TMP DP  RH WIND       PRES   REMARKS
ORANGE         CLOUDY    81  79  94 CALM      30.01R
PORT ARTHUR    CLOUDY    79  75  87 CALM      29.98S
GALVESTON      CLOUDY    83  78  85 N7        29.98F
ANGLETON       MOSUNNY   81  78  91 N6        29.98S
BAY CITY       SUNNY     80  77  90 N3        29.98S
$$

TEXAS COASTAL BEND, RIO GRANDE PLAINS DEEP SOUTH TEXAS

CITY           SKY/WX    TMP DP  RH WIND       PRES   REMARKS
VICTORIA       MOSUNNY   82  76  81 CALM      29.98S
BEEVILLE       FAIR     N/A N/A N/A CALM      29.98S
ROCKPORT         N/A    N/A N/A N/A MISG      29.96S
PORT ARANSAS   MOSUNNY   85  75  72 NE3       29.96S
PORT LAVACA    SUNNY     80  75  85 NE5       29.98S
CORPUS CHRISTI MOSUNNY   83  77  82 NW5       29.97R
KINGSVILLE NAS MOSUNNY   83  80  91 N3        29.97S
COTULLA        SUNNY     81  72  74 SE8       29.99R
LAREDO         SUNNY     82  73  74 S7        29.98S
BROWNSVILLE    SUNNY     83  78  85 NE6       29.95R
PORT ISABEL    PTSUNNY   81  77  88 N5        29.95R
HEBBRONVILLE   SUNNY     78  72  84 SE6       30.00S
MCALLEN        SUNNY     85  76  74 VRB5      29.96R
WESLACO        SUNNY     82  75  79 E5        29.94F
FALFURRIAS     SUNNY     80  75  86 CALM      29.97S
EDINBURG       SUNNY     85  75  73 CALM      29.96S
$$




USA.gov is the U.S. government's official web portal to all federal, state and local government web resources and services.